Regional Weather Roundup
Issued by NWS

Home | Current Version | Previous Version | Graphics & Text | Print | Product List | Glossary Off
Versions: 1 2 3 4 5 6 7 8 9 10 11 12 13 14 15 16 17 18 19 20 21 22 23 24 25 26 27 28 29 30 31 32 33 34 35 36 37 38 39 40 41 42 43 44 45 46 47 48 49 50

000
ASUS43 KDMX 181401
RWRIA

WEATHER ROUNDUP FOR IOWA
NATIONAL WEATHER SERVICE DES MOINES IA
800 AM CST THU JAN 18 2018

NOTE: "FAIR" INDICATES FEW OR NO CLOUDS BELOW 12,000 FEET WITH NO
SIGNIFICANT WEATHER AND/OR OBSTRUCTIONS TO VISIBILITY.

* - THESE STATIONS ARE NOT NWS STATIONS...THUS NOT UNDER NWS
QUALITY CONTROL.  THEY ALSO DO NOT REPORT WEATHER SUCH
AS PRECIPITATION OR FOG.

IAZ001>003-012>014-020>022-031>034-043>046-181500-
   NORTHWEST IOWA

CITY           SKY/WX    TMP DP  RH WIND       PRES   REMARKS
CARROLL *      CLOUDY    19  12  73 SW13G21   30.02S WCI   7
CHEROKEE *     CLOUDY    16  14  89 S5        30.00F WCI   9
DENISON *      CLOUDY    18  10  73 VRB6      30.05S WCI   9
LE MARS *      CLOUDY    16  12  86 S9        29.99F WCI   4
ORANGE CITY *  CLOUDY    18  18 100 S6        29.97F WCI   9
SHELDON *      CLOUDY    14  12  92 S6        29.96F WCI   5
SIOUX CITY     CLOUDY    13  10  88 E7        30.01F WCI   3
SPENCER        CLOUDY    19  13  77 SW14      29.97F WCI   6
STORM LAKE *   CLOUDY    18  14  86 SW14      29.98F WCI   4
$$

IAZ055>058-069>071-079>083-090>094-181500-
   SOUTHWEST IOWA

CITY           SKY/WX    TMP DP  RH WIND       PRES   REMARKS
ATLANTIC *     CLOUDY    18  10  73 SW16      30.09S WCI   3
AUDUBON *      CLOUDY    18  10  73 S14       30.04F WCI   4
CLARINDA *     CLOUDY    10   7  85 S8          N/A  WCI  -1
COUNCIL BLFS * CLOUDY    18  10  73 SW16      30.06F WCI   3
CRESTON *      CLOUDY    16   9  73 SW17      30.10F WCI   0
HARLAN  *      CLOUDY    16  10  79 S16       30.08F WCI   0
LAMONI         CLOUDY    15   7  70 SW10      30.16F WCI   2
RED OAK *      CLOUDY    14   9  79 S10       30.12F WCI   1
SHENANDOAH *   CLOUDY    16   9  73 SW8       30.16F WCI   5
$$

IAZ047>049-059>061-072>074-084-181500-
   CENTRAL IOWA

CITY           SKY/WX    TMP DP  RH WIND       PRES   REMARKS
AMES           CLOUDY    20  12  71 S9        30.05F WCI   9
ANKENY *       CLOUDY    21  10  63 SW9       30.09S WCI  11
BOONE *        CLOUDY    21  12  68 W14G20    30.03R WCI   8
CHARITON *     CLOUDY    18  10  73 SW14G24   30.11F WCI   4
DES MOINES     CLOUDY    20  10  65 SW14      30.07F WCI   7
GRINNELL*      CLOUDY    18  11  74 SW16      30.08F WCI   4
KNOXVILLE *    CLOUDY    19   9  63 SW14      30.08F WCI   6
MARSHALLTOWN   CLOUDY    20  12  71 SW9       30.04F WCI   9
NEWTON *       CLOUDY    18  10  73 SW13      30.09F WCI   4
PELLA *        CLOUDY    19  10  68 SW9       30.12F WCI   8
PERRY *          N/A     20  10  66 SW12      30.04F WCI   8
$$

IAZ004>006-015-016-023>025-035-036-181500-
   NORTH CENTRAL IOWA

CITY           SKY/WX    TMP DP  RH WIND       PRES   REMARKS
ALGONA *       CLOUDY    19  19 100 SW14      29.97S WCI   6
CLARION *      CLOUDY    16  16 100 SW10      30.01S WCI   3
ESTHERVILLE    PTCLDY    19  15  84 SW10      29.94F WCI   7
FORT DODGE *   CLOUDY    16  11  80 SW9       30.02F WCI   4
MASON CITY     CLOUDY    20  13  74 SW13      29.99S WCI   7
FOREST CITY *    N/A     19  14  79 SW8       29.97S WCI   9
WEBSTER CITY * CLOUDY    18  10  73 SW14      30.00F WCI   4
IOWA FALLS *     N/A     20  14  77 SW12      30.03F HAZE    WCI   8
$$

IAZ007>011-017>019-026>030-037>042-050>054-066-181500-
   NORTHEAST IOWA

CITY           SKY/WX    TMP DP  RH WIND       PRES   REMARKS
CEDAR RAPIDS     N/A     19  10  68 S9        30.08F WCI   8
CHARLES CITY *   N/A     18  14  86 SW9       30.00S WCI   6
CLINTON *        N/A     16  11  80 SW7       30.14R WCI   6
DECORAH *        N/A     19  14  79 VRB6      29.98R WCI  11
DUBUQUE          N/A     15   8  73 S13       30.03F WCI   1
MONTICELLO *     N/A     18  10  73 SW10      30.08F WCI   6
OELWEIN *        N/A     16  14  93 SW9       30.03F WCI   4
WATERLOO         N/A     19  11  70 SW9       30.03F WCI   8
$$

IAZ064-065-067-068-078-181500-
   EAST CENTRAL IOWA

CITY           SKY/WX    TMP DP  RH WIND       PRES   REMARKS
DAVENPORT        N/A     18  10  71 SW16      30.14F WCI   3
IOWA CITY        N/A     19   9  65 S8        30.14F WCI   9
MT. PLEASANT * CLOUDY    18  10  73 SW17      30.18F WCI   2
MUSCATINE *      N/A     18  10  73 S12       30.16F WCI   5
QUAD CITIES      N/A     19  10  68 SW9       30.15F WCI   8
$$

IAZ062-063-075>077-085>089-095>099-181500-
   SOUTHEAST IOWA

CITY           SKY/WX    TMP DP  RH WIND       PRES   REMARKS
BURLINGTON     CLOUDY    17   8  67 SW16      30.18F WCI   2
FAIRFIELD *    CLOUDY    19   9  63 SW15      30.13F WCI   5
FORT MADISON * CLOUDY    18  10  73 S17       30.20F WCI   2
KEOKUK *       CLOUDY    16   9  73 S8        30.24S WCI   5
OSKALOOSA *      N/A     19  11  73 SW13      30.12F WCI   5
OTTUMWA        CLOUDY    19   9  65 SW15      30.12F WCI   5
WASHINGTON *   CLOUDY    19  12  73 SW18      30.13F WCI   4
$$

ABBREVIATIONS USED IN REMARKS
   TC - TEMPERATURES IN CELSIUS
  WCI - WIND CHILL INDEX
   HX - HEAT INDEX
  VSB - VISIBILITY
$$





USA.gov is the U.S. government's official web portal to all federal, state and local government web resources and services.